Preview of NWS' New Version of Forecast
This preview is not operational and should not be used for support decisions.

Regional Weather Roundup (RWR)

Issued by National Weather Service (NWS)

                            
000
ASUS46 KPQR 181610
RWROR 

OREGON REGIONAL WEATHER ROUNDUP
NATIONAL WEATHER SERVICE PORTLAND OR
900 AM PDT THU APR 18 2019

NOTE: "FAIR" INDICATES FEW OR NO CLOUDS BELOW 12,000 FEET WITH
NO SIGNIFICANT WEATHER AND/OR OBSTRUCTIONS TO VISIBILITY.

ORZ001>013-181700-
NORTHWEST OREGON

  
CITY           SKY/WX    TMP DP  RH WIND       PRES   REMARKS
ASTORIA        CLOUDY    52  49  89 CALM      30.23F                  
TILLAMOOK      PTSUNNY   52  50  93 CALM      30.26R                  
NEWPORT        MOSUNNY   57  52  82 E3        30.26S                  
PORTLAND       PTSUNNY   53  47  79 NE5       30.27S                  
VANCOUVER WA   CLOUDY    53  47  79 CALM      30.26F                  
SCAPPOOSE      CLOUDY    54  48  80 CALM      30.26F                  
HILLSBORO      PTSUNNY   54  48  80 CALM      30.25F                  
AURORA         SUNNY     55  48  77 CALM      30.27S                  
MCMINNVILLE    MOSUNNY   54  49  83 CALM      30.25F                  
SALEM          MOSUNNY   56  48  74 SE3       30.24F                  
CORVALLIS      SUNNY     53  49  86 CALM      30.26S                  
EUGENE         PTSUNNY   56  49  77 VRB3      30.25F                  
$$

ORZ021-028-181700-
SOUTHWEST OREGON

  
CITY           SKY/WX    TMP DP  RH WIND       PRES   REMARKS
NORTH BEND     MOSUNNY   55  52  89 E5        30.23S                  
BROOKINGS      SUNNY     60  55  83 CALM      30.18F                  
ROSEBURG       SUNNY     56  48  74 CALM      30.26F                  
SEXTON SUMMIT  SUNNY     56  44  64 SE5       30.28F                  
GRANTS PASS    FAIR      54  46  76 CALM      30.30F                  
MEDFORD        SUNNY     54  45  71 VRB3      30.28F                  
$$

ORZ014>016-041-181700-
COLUMBIA GORGE

  
CITY           SKY/WX    TMP DP  RH WIND       PRES   REMARKS
TROUTDALE      CLOUDY    53  46  77 E5        30.26S                  
HOOD RIVER     SUNNY     52  41  66 MISG      30.27F                  
THE DALLES     SUNNY     53  44  71 CALM      30.26F                  
$$

ORZ029>031-041-044-049-050-061>064-502-503-505>511-181700-
EASTERN OREGON

  
CITY           SKY/WX    TMP DP  RH WIND       PRES   REMARKS
MADRAS         SUNNY     50  39  66 CALM      30.30F                  
REDMOND        MOSUNNY   56  37  49 SE8       30.29F                  
BEND           SUNNY     54  39  58 E5        30.30F                  
PRINEVILLE     MOSUNNY   52  36  54 E5        30.31F                  
KLAMATH FALLS  SUNNY     50  44  80 CALM      30.33S                  
LAKEVIEW       SUNNY     50  40  68 CALM      30.35F                  
HERMISTON      MOSUNNY   59  47  64 CALM      30.24F                  
PENDLETON      PTSUNNY   55  43  63 SE6       30.26S                  
JOHN DAY       SUNNY     48  38  69 E8        30.33F                  
MEACHAM        CLOUDY    48  39  71 CALM      30.29F                  
LA GRANDE      MOSUNNY   46  40  79 NW6       30.33F                  
BAKER CITY     SUNNY     49  32  52 CALM      30.34F                  
BURNS          SUNNY     50  37  61 CALM      30.36S                  
ROME             N/A     54  41  61 SW3       30.35S                  
ONTARIO        SUNNY     53  41  63 CALM      30.37S                  
$$